User: anonymous   Login
Location: Unspecified
(0.0000°N, 0.0000°E)
Time: 13:19:26
(UTC+00:00)
Language:

LILACSAT-1 - Orbit

View from above orbital plane
View from above orbital plane
View from above satellite
View from above satellite

Ground track
Ground track

The orbit data is extracted from the following two-line orbital elements,

1 42725U 98067ME  18347.84764664  .00067427  00000-0  31564-3 0  9996
2 42725  51.6330 154.4901 0004703 197.5621 244.3557 15.82583333 88837
Epoch (UTC): 13 December 2018 20:20:36
Eccentricity: 0.0004703
inclination: 51.6330°
perigee height: 320 km
apogee height: 326 km
right ascension of ascending node: 154.4901°
argument of perigee: 197.5621°
revolutions per day: 15.82583333
mean anomaly at epoch: 244.3557°
orbit number at epoch: 8883

The dashed part of the orbit path shows where the satellite is in the earth's shadow,  

DLR